SDG094 LIML-LIEE

Flight info

Callsign SDG094
Flight time 1h 1m
Altitude 37000
Route ITCAP DCT OTMUV DCT UNITA DCT ERTEV DCT TORTU DCT OKROK DCT AJO DCT CORSI DCT UPDUT DCT INDUM DCT MINKA DCT ORVEX DCT BOLOT M858 RAMEN M732 KOVAS
Aircraft A320/M-SDE3FGHIRWY/LB1

Departure

Time 2026-04-30 12:45
Airport Milano Linate Airport (LIML)

Arrival

Time 2026-04-30 13:47
Airport Cagliari Elmas Airport (LIEE)
Time Latitude Longitude Altitude Speed Heading
2026-04-30 12:19 45.45975 9.28033 367 ft 0 kts
2026-04-30 12:38 45.45959 9.28033 370 ft 4 kts 356°
2026-04-30 12:38 45.45932 9.28038 366 ft 4 kts 342°
2026-04-30 12:38 45.45910 9.28054 367 ft 4 kts 303°
2026-04-30 12:39 45.45904 9.28074 366 ft 1 kts 270°
2026-04-30 12:39 45.45904 9.28077 367 ft 0 kts 270°
2026-04-30 12:41 45.45904 9.28057 367 ft 6 kts 270°
2026-04-30 12:42 45.45887 9.27996 366 ft 8 kts 213°
2026-04-30 12:42 45.45799 9.27984 364 ft 17 kts 179°
2026-04-30 12:42 45.45654 9.27980 364 ft 23 kts 180°
2026-04-30 12:42 45.45514 9.27978 364 ft 3 kts 181°
2026-04-30 12:43 45.45494 9.27976 364 ft 2 kts 185°
2026-04-30 12:43 45.45464 9.27949 368 ft 11 kts 236°
2026-04-30 12:43 45.45457 9.27828 364 ft 12 kts 267°
2026-04-30 12:43 45.45417 9.27739 364 ft 10 kts 216°
2026-04-30 12:44 45.45355 9.27691 368 ft 12 kts 207°
2026-04-30 12:44 45.45263 9.27635 364 ft 17 kts 196°
2026-04-30 12:44 45.45130 9.27639 364 ft 22 kts 176°
2026-04-30 12:44 45.44825 9.27672 364 ft 78 kts 175°
2026-04-30 12:45 45.44066 9.27756 365 ft 138 kts 176°
2026-04-30 12:45 45.43048 9.27862 786 ft 144 kts 172°
2026-04-30 12:45 45.42052 9.27972 1325 ft 144 kts 162°
2026-04-30 12:45 45.41238 9.28731 1894 ft 140 kts 125°
2026-04-30 12:46 45.40771 9.30015 2283 ft 158 kts 111°
2026-04-30 12:46 45.40329 9.31583 2622 ft 182 kts 110°
2026-04-30 12:46 45.40008 9.32739 2821 ft 198 kts 111°
2026-04-30 12:46 45.39456 9.34665 3214 ft 222 kts 116°
2026-04-30 12:47 45.38384 9.36389 3632 ft 247 kts 141°
2026-04-30 12:47 45.36989 9.37866 4445 ft 252 kts 140°
2026-04-30 12:47 45.35149 9.39910 5646 ft 257 kts 139°
2026-04-30 12:47 45.33730 9.41546 6357 ft 269 kts 139°
2026-04-30 12:48 45.32740 9.42704 6814 ft 276 kts 139°
2026-04-30 12:48 45.31238 9.44463 7588 ft 282 kts 139°
2026-04-30 12:48 45.29706 9.46248 8368 ft 288 kts 139°
2026-04-30 12:48 45.28144 9.48058 9182 ft 292 kts 139°
2026-04-30 12:49 45.26562 9.49880 10095 ft 294 kts 139°
2026-04-30 12:49 45.24946 9.51742 10630 ft 309 kts 139°
2026-04-30 12:49 45.23240 9.53713 10872 ft 332 kts 139°
2026-04-30 12:49 45.21257 9.55524 11346 ft 347 kts 157°
2026-04-30 12:50 45.18876 9.56190 12010 ft 354 kts 177°
2026-04-30 12:50 45.16408 9.56374 12755 ft 358 kts 173°
2026-04-30 12:50 45.13970 9.57117 13477 ft 361 kts 160°
2026-04-30 12:50 45.11655 9.58571 14072 ft 367 kts 149°
2026-04-30 12:51 45.09309 9.60040 14672 ft 373 kts 165°
2026-04-30 12:51 45.06730 9.60390 15334 ft 375 kts 186°
2026-04-30 12:51 45.04236 9.59379 15992 ft 375 kts 209°
2026-04-30 12:51 45.02144 9.57197 16583 ft 375 kts 225°
2026-04-30 12:52 45.00130 9.54813 17175 ft 381 kts 218°
2026-04-30 12:52 44.97892 9.52762 17795 ft 385 kts 212°
2026-04-30 12:52 44.95578 9.50842 18465 ft 387 kts 213°
2026-04-30 12:52 44.93232 9.48924 18993 ft 391 kts 212°
2026-04-30 12:53 44.90858 9.46997 19483 ft 395 kts 211°
2026-04-30 12:53 44.88463 9.45063 20057 ft 398 kts 211°
2026-04-30 12:53 44.86057 9.43126 20607 ft 400 kts 212°
2026-04-30 12:53 44.83630 9.41174 21115 ft 404 kts 212°
2026-04-30 12:54 44.81180 9.39203 21649 ft 407 kts 212°
2026-04-30 12:54 44.78717 9.37221 22215 ft 408 kts 212°
2026-04-30 12:54 44.76246 9.35234 22737 ft 410 kts 212°
2026-04-30 12:54 44.73757 9.33235 23291 ft 413 kts 212°
2026-04-30 12:55 44.71253 9.31227 23795 ft 416 kts 212°
2026-04-30 12:55 44.68728 9.29200 24211 ft 419 kts 212°
2026-04-30 12:55 44.66190 9.27165 24644 ft 421 kts 213°
2026-04-30 12:55 44.63639 9.25124 25082 ft 422 kts 213°
2026-04-30 12:56 44.61082 9.23080 25515 ft 423 kts 213°
2026-04-30 12:56 44.58521 9.21034 25954 ft 424 kts 214°
2026-04-30 12:56 44.55950 9.18980 26343 ft 425 kts 214°
2026-04-30 12:56 44.53379 9.16924 26751 ft 426 kts 214°
2026-04-30 12:57 44.50797 9.14866 27138 ft 428 kts 214°
2026-04-30 12:57 44.48199 9.12803 27541 ft 430 kts 214°
2026-04-30 12:57 44.45592 9.10741 27911 ft 432 kts 213°
2026-04-30 12:57 44.42821 9.09033 28261 ft 440 kts 203°
2026-04-30 12:58 44.39832 9.07976 28645 ft 447 kts 193°
2026-04-30 12:58 44.36716 9.07531 29086 ft 452 kts 189°
2026-04-30 12:58 44.33577 9.07162 29384 ft 455 kts 189°
2026-04-30 12:58 44.30414 9.06783 29697 ft 457 kts 189°
2026-04-30 12:59 44.27278 9.06407 30024 ft 459 kts 190°
2026-04-30 12:59 44.24047 9.06018 30319 ft 461 kts 190°
2026-04-30 12:59 44.20850 9.05635 30604 ft 462 kts 190°
2026-04-30 12:59 44.17645 9.05253 30867 ft 463 kts 190°
2026-04-30 13:00 44.14434 9.04872 31129 ft 464 kts 190°
2026-04-30 13:00 44.11253 9.04491 31361 ft 465 kts 190°
2026-04-30 13:00 44.08022 9.04104 31604 ft 466 kts 190°
2026-04-30 13:00 44.04796 9.03720 31932 ft 465 kts 190°
2026-04-30 13:01 44.01578 9.03341 32292 ft 463 kts 190°
2026-04-30 13:01 43.98371 9.02964 32642 ft 462 kts 190°
2026-04-30 13:01 43.95177 9.02588 32981 ft 460 kts 190°
2026-04-30 13:01 43.91999 9.02128 33318 ft 458 kts 193°
2026-04-30 13:02 43.88855 9.01516 33650 ft 455 kts 194°
2026-04-30 13:02 43.85736 9.00800 33983 ft 453 kts 195°
2026-04-30 13:02 43.82642 9.00042 34327 ft 451 kts 196°
2026-04-30 13:02 43.79554 8.99286 34602 ft 450 kts 195°
2026-04-30 13:03 43.76463 8.98554 34840 ft 451 kts 195°
2026-04-30 13:03 43.73372 8.97855 35083 ft 451 kts 194°
2026-04-30 13:03 43.70270 8.97183 35312 ft 451 kts 194°
2026-04-30 13:03 43.67168 8.96528 35515 ft 451 kts 194°
2026-04-30 13:04 43.64060 8.95937 35784 ft 452 kts 189°
2026-04-30 13:04 43.60903 8.95827 36018 ft 455 kts 185°
2026-04-30 13:04 43.57735 8.95835 36223 ft 455 kts 185°
2026-04-30 13:04 43.54564 8.95840 36426 ft 455 kts 185°
2026-04-30 13:05 43.51401 8.95839 36624 ft 455 kts 185°
2026-04-30 13:05 43.48239 8.95837 36816 ft 455 kts 185°
2026-04-30 13:05 43.45117 8.95831 37002 ft 454 kts 185°
2026-04-30 13:06 43.38808 8.95817 37213 ft 452 kts 186°
2026-04-30 13:06 43.32570 8.95363 37210 ft 447 kts 190°
2026-04-30 13:07 43.26386 8.94503 37195 ft 445 kts 192°
2026-04-30 13:07 43.20225 8.93656 37195 ft 445 kts 191°
2026-04-30 13:08 43.14053 8.92925 37192 ft 445 kts 190°
2026-04-30 13:08 43.07874 8.92235 37173 ft 446 kts 190°
2026-04-30 13:09 43.01693 8.91541 37179 ft 446 kts 190°
2026-04-30 13:09 42.95514 8.90834 37173 ft 446 kts 191°
2026-04-30 13:10 42.89367 8.90120 37148 ft 445 kts 191°
2026-04-30 13:10 42.83191 8.89401 37117 ft 445 kts 191°
2026-04-30 13:11 42.77013 8.88703 37117 ft 445 kts 191°
2026-04-30 13:11 42.70844 8.88005 37104 ft 445 kts 191°
2026-04-30 13:12 42.64685 8.87302 37089 ft 444 kts 191°
2026-04-30 13:12 42.58530 8.86600 37091 ft 443 kts 191°
2026-04-30 13:13 42.49302 8.85559 37095 ft 443 kts 191°
2026-04-30 13:14 42.40078 8.84517 37095 ft 442 kts 192°
2026-04-30 13:14 42.30914 8.83477 37100 ft 443 kts 191°
2026-04-30 13:15 42.21714 8.82454 37094 ft 442 kts 192°
2026-04-30 13:16 42.15584 8.81767 37107 ft 442 kts 192°
2026-04-30 13:16 42.09458 8.81075 37114 ft 442 kts 192°
2026-04-30 13:17 42.00248 8.80044 37116 ft 442 kts 192°
2026-04-30 13:18 41.91058 8.79021 37119 ft 442 kts 192°
2026-04-30 13:18 41.81863 8.78005 37105 ft 442 kts 193°
2026-04-30 13:19 41.75709 8.77573 37108 ft 449 kts 184°
2026-04-30 13:19 41.69496 8.78110 37111 ft 450 kts 184°
2026-04-30 13:20 41.63239 8.78663 37106 ft 450 kts 184°
2026-04-30 13:20 41.56979 8.79207 37117 ft 451 kts 184°
2026-04-30 13:21 41.50718 8.79745 37131 ft 451 kts 184°
2026-04-30 13:22 41.41326 8.80548 37110 ft 451 kts 184°
2026-04-30 13:22 41.31923 8.81880 37116 ft 463 kts 171°
2026-04-30 13:23 41.22593 8.84827 37114 ft 449 kts 186°
2026-04-30 13:24 41.10131 8.84980 36781 ft 448 kts 187°
2026-04-30 13:25 41.03916 8.85067 35843 ft 444 kts 187°
2026-04-30 13:25 40.97790 8.85148 34796 ft 437 kts 187°
2026-04-30 13:26 40.88723 8.85356 33184 ft 430 kts 187°
2026-04-30 13:26 40.82784 8.85528 32158 ft 424 kts 186°
2026-04-30 13:27 40.76902 8.85847 31136 ft 421 kts 183°
2026-04-30 13:28 40.68222 8.86668 29624 ft 415 kts 182°
2026-04-30 13:28 40.62515 8.87174 28700 ft 407 kts 182°
2026-04-30 13:28 40.59693 8.87406 28246 ft 403 kts 182°
2026-04-30 13:29 40.54136 8.87856 27331 ft 397 kts 182°
2026-04-30 13:29 40.48650 8.88316 26401 ft 393 kts 182°
2026-04-30 13:30 40.40489 8.88995 24954 ft 391 kts 182°
2026-04-30 13:31 40.35103 8.89439 23925 ft 391 kts 182°
2026-04-30 13:31 40.26980 8.90116 22308 ft 385 kts 181°
2026-04-30 13:32 40.21813 8.90555 21344 ft 359 kts 181°
2026-04-30 13:32 40.16829 8.90953 20413 ft 359 kts 181°
2026-04-30 13:33 40.11847 8.91353 19479 ft 359 kts 180°
2026-04-30 13:33 40.06859 8.91751 18558 ft 360 kts 180°
2026-04-30 13:34 40.04351 8.91953 18050 ft 361 kts 180°
2026-04-30 13:34 39.97053 8.92562 16693 ft 335 kts 180°
2026-04-30 13:35 39.94720 8.92758 16274 ft 331 kts 180°
2026-04-30 13:35 39.90144 8.93118 15449 ft 332 kts 180°
2026-04-30 13:36 39.85519 8.93489 14618 ft 334 kts 180°
2026-04-30 13:36 39.83197 8.93681 14199 ft 335 kts 180°
2026-04-30 13:36 39.78752 8.95276 13311 ft 329 kts 150°
2026-04-30 13:37 39.76852 8.96858 12893 ft 322 kts 149°
2026-04-30 13:37 39.73067 9.00014 12046 ft 324 kts 149°
2026-04-30 13:38 39.69972 9.02574 11342 ft 309 kts 148°
2026-04-30 13:38 39.68189 9.04049 10927 ft 300 kts 148°
2026-04-30 13:38 39.64724 9.06546 10434 ft 268 kts 164°
2026-04-30 13:39 39.61154 9.07148 9557 ft 258 kts 182°
2026-04-30 13:39 39.57454 9.07220 8242 ft 273 kts 181°
2026-04-30 13:40 39.55567 9.07267 7751 ft 269 kts 181°
2026-04-30 13:40 39.53724 9.07025 7228 ft 263 kts 196°
2026-04-30 13:40 39.52097 9.06197 7122 ft 241 kts 212°
2026-04-30 13:40 39.50774 9.05037 7062 ft 221 kts 218°
2026-04-30 13:41 39.49538 9.03870 7068 ft 219 kts 218°
2026-04-30 13:41 39.48301 9.02710 6902 ft 221 kts 217°
2026-04-30 13:41 39.47041 9.01528 6337 ft 227 kts 217°
2026-04-30 13:41 39.45744 9.00313 5729 ft 233 kts 217°
2026-04-30 13:42 39.44419 8.99069 5113 ft 238 kts 216°
2026-04-30 13:42 39.43066 8.97798 4528 ft 241 kts 216°
2026-04-30 13:42 39.40444 8.95330 3785 ft 227 kts 216°
2026-04-30 13:43 39.39187 8.94148 3472 ft 219 kts 215°
2026-04-30 13:43 39.37960 8.93025 3147 ft 212 kts 208°
2026-04-30 13:43 39.36592 8.92662 2808 ft 198 kts 166°
2026-04-30 13:43 39.35444 8.93483 2529 ft 188 kts 133°
2026-04-30 13:44 39.34523 8.94668 2255 ft 185 kts 136°
2026-04-30 13:44 39.33568 8.95773 2005 ft 184 kts 138°
2026-04-30 13:44 39.32618 8.96847 1737 ft 178 kts 138°
2026-04-30 13:44 39.31709 8.97876 1468 ft 169 kts 138°
2026-04-30 13:45 39.30026 8.99796 1044 ft 158 kts 139°
2026-04-30 13:45 39.29209 9.00735 880 ft 157 kts 139°
2026-04-30 13:45 39.28411 9.01655 667 ft 148 kts 139°
2026-04-30 13:46 39.27671 9.02510 475 ft 139 kts 140°
2026-04-30 13:46 39.26957 9.03324 281 ft 136 kts 141°
2026-04-30 13:46 39.26264 9.04155 92 ft 136 kts 142°
2026-04-30 13:46 39.25578 9.04945 19 ft 120 kts 139°
2026-04-30 13:47 39.25114 9.05467 15 ft 58 kts 138°
2026-04-30 13:47 39.25031 9.05564 17 ft 0 kts 131°
2026-04-30 13:48 39.25028 9.05613 17 ft 0 kts 39°
2026-04-30 13:48 39.25030 9.05615 17 ft 3 kts 38°
2026-04-30 13:48 39.25118 9.05768 16 ft 25 kts 60°